[[{"header":{"parameterUnit":"m.s-1","parameterCategory":1,"la1":30.2991,"la2":30.254,"lo1":-89.0895,"lo2":-89.0444,"dy":0.0017,"dx":0.0017,"nx":28,"ny":28,"refTime":"2024-03-23T21:00:00:Z","depth":0,"parameterNumber":2,"parameterNumberName":"U-component_of_WINDS"},"data":[0,0,0,0,0,0,0,0,0,0,0,0,0,0,0,0,0,0,0,0,0,0,0,0,0,0,0,0,0,0,0,0,0,0,0,0,0,0,0,0,0,0,0,0,0,0,0,0,0,0,0,0,0,0,0,0,0,0,-4.9149,-4.915,0,-4.92,-4.9201,-4.9201,-4.9156,-4.9154,-4.9152,-4.915,-4.92,-4.9203,-4.9206,0,0,0,0,0,0,0,0,0,0,0,0,0,-4.9012,-4.9015,-4.9149,-4.915,-4.915,-4.92,-4.9201,-4.9201,-4.9156,-4.9154,-4.9151,-4.9149,-4.9199,-4.9203,-4.9207,0,0,0,0,0,0,0,0,0,0,0,0,0,-4.9068,-4.9016,-4.9149,-4.9134,-4.9133,-4.92,-4.9201,-4.9202,-4.9156,-4.9154,-4.9151,-4.9148,-4.9198,-4.9203,-4.9207,-4.9291,0,0,-4.9221,-4.9223,0,0,0,0,0,0,0,0,-4.9065,-4.9073,-4.9135,-4.9135,-4.9134,-4.9169,-4.9171,-4.9231,-4.9157,-4.9147,-4.915,-4.9147,-4.9192,-4.9197,-4.9212,-4.9293,-4.9296,-4.9222,-4.9224,-4.9226,-4.9228,0,0,0,0,0,0,0,-4.9061,-4.9071,-4.9169,-4.9136,-4.9136,-4.9124,-4.9129,-4.9182,-4.9185,-4.9148,-4.9145,-4.9152,-4.9191,-4.9208,-4.9213,-4.9296,-4.9221,-4.9226,-4.9228,-4.923,-4.9449,-4.9452,0,0,0,0,0,0,-4.9059,-4.9068,-4.9167,-4.9171,-4.9092,-4.9129,-4.9134,-4.916,-4.9184,-4.9185,-4.9154,-4.9149,-4.9202,-4.9208,-4.9215,-4.9314,-4.9226,-4.9231,-4.9233,-4.9446,-4.945,-4.9453,0,0,0,0,0,0,-4.9056,-4.9069,-4.9165,-4.9119,-4.913,-4.9134,-4.9164,-4.9163,-4.918,-4.9188,-4.9188,-4.9171,-4.92,-4.9208,-4.9273,-4.9315,-4.9233,-4.9237,-4.9443,-4.9447,-4.9452,-4.9513,0,0,0,0,0,0,-4.9053,-4.9068,-4.9099,-4.912,-4.9133,-4.9222,-4.9166,-4.9166,-4.9188,-4.9182,-4.9204,-4.9205,-4.9198,-4.9266,-4.9277,-4.932,-4.924,-4.9439,-4.9445,-4.945,-4.9507,-4.9519,-4.953,0,0,0,0,0,-4.9048,-4.9114,-4.9101,-4.9113,-4.9172,-4.9225,-4.9232,-4.9223,-4.9192,-4.9223,-4.923,-4.9204,-4.931,-4.9273,-4.9285,-4.933,-4.9436,-4.9443,-4.945,-4.9502,-4.9517,-4.9529,0,0,0,0,0,0,-4.9097,-4.9116,-4.9102,-4.9177,-4.92,-4.9217,-4.9257,-4.9239,-4.9271,-4.9264,-4.9252,-4.9257,-4.9325,-4.9334,-4.9293,-4.9413,-4.9368,-4.9377,-4.9403,-4.9417,-4.9428,-4.9423,-4.9244,0,0,0,0,0,-4.9117,-4.9159,-4.9173,-4.9238,-4.925,-4.9252,-4.9275,-4.9266,-4.9289,-4.9298,-4.9308,-4.9331,-4.9369,-4.9394,-4.943,-4.951,-4.9514,-4.9547,-4.9558,-4.9567,-4.9575,-4.9618,-4.9632,-4.9476,-4.9476,-4.9476,0,0,-4.9158,-4.9174,-4.92,-4.9248,-4.9265,-4.9308,-4.926,-4.9307,-4.9339,-4.9305,-4.9366,-4.9375,-4.94,-4.9472,-4.9505,-4.9482,-4.962,-4.9576,-4.9583,-4.9586,-4.9626,-4.9641,-4.9654,-4.9481,-4.948,-4.9479,0,0,-4.9254,-4.9271,-4.9326,-4.9344,-4.9371,-4.9372,-4.9386,-4.9407,-4.9412,-4.9473,-4.9449,-4.9487,-4.9553,-4.9572,-4.959,-4.9697,-4.9674,-4.9709,-4.9765,-4.9807,-4.982,-4.983,-4.9867,-4.988,-4.9717,-4.9717,-4.9717,0,-4.93,-4.9364,-4.9356,-4.9406,-4.9427,-4.9401,-4.9457,-4.9476,-4.9512,-4.9528,-4.9503,-4.9586,-4.9601,-4.9677,-4.9704,-4.972,-4.9734,-4.9704,-4.9819,-4.9829,-4.9839,-4.9874,-4.9888,-4.9721,-4.972,-4.972,-4.972,0,-4.942,-4.9465,-4.9507,-4.9544,-4.9571,-4.9623,-4.9623,-4.9652,-4.9643,-4.9647,-4.971,-4.9728,-4.9767,-4.9785,-4.9776,-4.9861,-4.9846,-4.9821,-4.9774,-4.9858,-4.989,-4.9904,-4.9726,-4.9725,-4.9724,-4.9723,0,0,-4.9544,-4.9578,-4.9593,-4.961,-4.9639,-4.9674,-4.9726,-4.9765,-4.9789,-4.9817,-4.9859,-4.9918,-4.9895,-4.9916,-4.9909,-4.9946,-5.0028,-4.9916,-4.9916,-4.9934,-5.0122,-5.0139,-5.0154,-5.0016,-5.0019,-5.0021,-5.0119,0,-4.9639,-4.9729,-4.9725,-4.9809,-4.9851,-4.9828,-4.9874,-4.9897,-4.9903,-4.9939,-4.9946,-4.9987,-4.9954,-4.9967,-5.0003,-5.0011,-5.0065,-5.0004,-5.0054,-5.0056,-5.0045,-5.0171,-5.0189,-5.0281,-5.0132,-5.0134,-5.0136,0,-4.976,-4.9793,-4.9882,-4.9906,-4.9923,-4.9964,-5.0,-5.0035,-5.0062,-5.0064,-5.0089,-5.0077,-5.0129,-5.0085,-5.0158,-5.0116,-5.0137,-5.0144,-5.0148,-5.0149,-5.0098,-5.0174,-5.031,-5.0323,-5.0156,-5.0154,-5.0153,0,-4.9839,-4.9906,-4.9968,-4.9983,-5.0013,-5.0043,-5.0056,-5.008,-5.0104,-5.0137,-5.0152,-5.019,-5.021,-5.024,-5.0239,-5.0207,-5.0312,-5.0267,-5.0314,-5.0314,-5.0334,-5.0332,-5.0473,-5.0353,-5.0352,-5.0352,-5.0352,0,-4.9944,-4.9999,-5.0004,-5.0041,-5.0102,-5.0098,-5.0159,-5.017,-5.0192,-5.0231,-5.0215,-5.0252,-5.025,-5.0288,-5.0287,-5.0347,-5.0357,-5.0359,-5.0358,-5.0359,-5.0358,-5.0369,-5.0362,-5.0356,-5.0355,-5.0354,-5.0354,0,-5.0041,-5.0046,-5.0112,-5.0136,-5.0144,-5.0188,-5.0208,-5.0244,-5.0251,-5.0301,-5.0312,-5.0322,-5.0366,-5.0369,-5.042,-5.042,-5.0491,-5.0484,-5.0482,-5.048,-5.0525,-5.052,-5.0676,-5.0696,-5.0565,-5.0567,-5.0568,0,-5.0105,-5.0147,-5.0177,-5.0202,-5.0218,-5.026,-5.0285,-5.0284,-5.0311,-5.0345,-5.0377,-5.042,-5.0454,-5.0525,-5.0537,-5.0576,-5.0568,-5.062,-5.0573,-5.0573,-5.0566,-5.0562,-5.0566,-5.0628,-5.0629,-5.063,-5.0631,0,-5.0219,-5.0221,-5.0258,-5.0297,-5.0328,-5.0358,-5.0386,-5.0408,-5.0411,-5.0442,-5.0487,-5.0514,-5.0567,-5.0609,-5.0648,-5.0662,-5.0647,-5.0647,-5.0659,-5.0659,-5.0655,-5.0656,-5.0504,-5.0642,-5.0641,-5.064,-5.064,-5.0639,-5.03,-5.0336,-5.0363,-5.0405,-5.0427,-5.0455,-5.049,-5.0502,-5.054,-5.0582,-5.0581,-5.063,-5.0657,-5.0708,-5.0726,-5.0765,-5.0747,-5.0765,-5.0769,-5.0773,-5.0777,-5.0652,-5.0772,-5.0772,-5.0771,-5.0771,-5.0771,0,-5.0411,-5.0428,-5.0468,-5.0508,-5.0542,-5.0528,-5.0559,-5.0587,-5.0632,-5.0659,-5.0693,-5.0746,-5.0788,-5.0804,-5.0845,-5.0873,-5.0867,-5.0883,-5.0879,-5.0883,-5.0791,-5.0775,-5.0887,-5.0887,-5.0887,-5.0887,-5.0887,-5.0887,-5.0473,-5.0533,-5.0538,-5.0609,-5.0626,-5.0675,-5.0694,-5.072,-5.0741,-5.0801,-5.0836,-5.0847,-5.0869,-5.0912,-5.095,-5.0954,-5.0969,-5.0987,-5.0988,-5.0901,-5.0889,-5.0878,-5.0863,-5.0991,-5.0992,-5.1076,-5.1077,-5.1077]},{"header":{"parameterUnit":"m.s-1","parameterCategory":1,"la1":30.2991,"la2":30.254,"lo1":-89.0895,"lo2":-89.0444,"dy":0.0017,"dx":0.0017,"nx":28,"ny":28,"refTime":"2024-03-23T21:00:00:Z","depth":0,"parameterNumber":3,"parameterNumberName":"V-component_of_WINDS"},"data":[0,0,0,0,0,0,0,0,0,0,0,0,0,0,0,0,0,0,0,0,0,0,0,0,0,0,0,0,0,0,0,0,0,0,0,0,0,0,0,0,0,0,0,0,0,0,0,0,0,0,0,0,0,0,0,0,0,0,2.802,2.8021,0,2.8128,2.813,2.8131,2.8227,2.8228,2.8229,2.823,2.8337,2.8339,2.8341,0,0,0,0,0,0,0,0,0,0,0,0,0,2.7895,2.7896,2.802,2.8021,2.8023,2.8128,2.813,2.8131,2.8227,2.8228,2.823,2.8231,2.8337,2.8339,2.8341,0,0,0,0,0,0,0,0,0,0,0,0,0,2.797,2.7897,2.802,2.8083,2.809,2.8128,2.813,2.8132,2.8227,2.8228,2.823,2.8232,2.8336,2.8339,2.8341,2.8324,0,0,2.8349,2.8351,0,0,0,0,0,0,0,0,2.7966,2.7975,2.8073,2.8079,2.8087,2.8166,2.8125,2.8196,2.8226,2.8175,2.823,2.8232,2.8279,2.8286,2.8303,2.8329,2.8333,2.835,2.8351,2.8352,2.8353,0,0,0,0,0,0,0,2.7961,2.7971,2.8063,2.8074,2.8083,2.8106,2.8119,2.8139,2.8216,2.8179,2.8187,2.8198,2.8283,2.83,2.8306,2.8335,2.835,2.8352,2.8354,2.8355,2.8355,2.8353,0,0,0,0,0,0,2.7946,2.7966,2.806,2.8066,2.8029,2.8107,2.8121,2.8139,2.8216,2.8229,2.8197,2.8202,2.8294,2.8303,2.831,2.8297,2.8352,2.8355,2.8357,2.8356,2.8354,2.8353,0,0,0,0,0,0,2.7943,2.7953,2.8055,2.8018,2.8033,2.8107,2.8126,2.814,2.8157,2.8229,2.8243,2.82,2.8296,2.8306,2.8321,2.8302,2.8356,2.8359,2.8358,2.8356,2.8353,2.8268,0,0,0,0,0,0,2.7939,2.7952,2.7946,2.8017,2.8034,2.8064,2.8125,2.8141,2.8162,2.817,2.8236,2.8248,2.8298,2.8316,2.8323,2.8306,2.8361,2.836,2.8357,2.8354,2.8273,2.8263,2.8255,0,0,0,0,0,2.7934,2.7916,2.7945,2.7956,2.8029,2.8063,2.8073,2.8132,2.816,2.8155,2.8202,2.8246,2.8302,2.8317,2.8326,2.8309,2.8362,2.8358,2.8354,2.8277,2.8265,2.8255,0,0,0,0,0,0,2.7839,2.7927,2.796,2.7965,2.8006,2.8079,2.8075,2.8117,2.8149,2.8156,2.8226,2.824,2.8247,2.8279,2.8294,2.8297,2.8338,2.8336,2.8276,2.8265,2.8256,2.8249,2.8363,0,0,0,0,0,2.7819,2.784,2.7915,2.7912,2.7932,2.7999,2.8016,2.8058,2.8103,2.812,2.8168,2.8209,2.8236,2.8252,2.8281,2.8278,2.8294,2.8271,2.8262,2.8254,2.8252,2.8254,2.8246,2.8341,2.8341,2.8341,0,0,2.7778,2.7828,2.7837,2.7895,2.7932,2.7952,2.8013,2.8031,2.8047,2.8123,2.814,2.8176,2.8227,2.8233,2.8238,2.826,2.8229,2.8249,2.8243,2.8245,2.825,2.8241,2.8233,2.8338,2.8339,2.8339,0,0,2.7713,2.7752,2.7756,2.7792,2.7847,2.7893,2.7893,2.7961,2.7988,2.8007,2.8066,2.8084,2.8129,2.8164,2.8187,2.8137,2.8179,2.8144,2.8096,2.8098,2.809,2.8084,2.8068,2.8061,2.8141,2.8141,2.8141,0,2.7654,2.7687,2.7751,2.7767,2.7791,2.7863,2.7867,2.7898,2.796,2.7975,2.7999,2.8059,2.8097,2.8114,2.8102,2.8117,2.8121,2.8137,2.8086,2.8081,2.8076,2.8061,2.8054,2.8136,2.8137,2.8137,2.8138,0,2.7613,2.7635,2.7631,2.7691,2.7714,2.7723,2.7789,2.7805,2.7845,2.7888,2.7907,2.7956,2.7998,2.8004,2.8043,2.8026,2.8039,2.8073,2.8116,2.8061,2.8049,2.8043,2.813,2.8131,2.8133,2.8134,0,0,2.7491,2.7588,2.7585,2.7614,2.7681,2.77,2.7712,2.7754,2.7767,2.7807,2.782,2.7858,2.7891,2.7917,2.796,2.7962,2.7921,2.7997,2.7999,2.7982,2.7908,2.7882,2.7875,2.795,2.7949,2.7948,2.7904,0,2.7438,2.7467,2.7526,2.7536,2.7558,2.7627,2.7639,2.7681,2.7721,2.7745,2.779,2.7816,2.7857,2.7874,2.7878,2.7925,2.7907,2.7929,2.7963,2.7963,2.7949,2.7868,2.7841,2.7797,2.79,2.7899,2.7898,0,2.738,2.7419,2.7431,2.7499,2.7511,2.752,2.7564,2.7586,2.7636,2.7665,2.7696,2.7744,2.7761,2.7799,2.7825,2.7838,2.7855,2.788,2.788,2.7886,2.7928,2.7873,2.7784,2.7778,2.7891,2.7891,2.7892,0,2.7293,2.7347,2.7362,2.7384,2.7463,2.7469,2.7502,2.7553,2.7575,2.7613,2.7629,2.7667,2.7688,2.7717,2.7774,2.7797,2.7794,2.7836,2.7819,2.7818,2.7816,2.7816,2.773,2.7824,2.7824,2.7825,2.7825,0,2.7228,2.7234,2.7324,2.7333,2.7342,2.741,2.7416,2.7455,2.75,2.7519,2.758,2.7595,2.7669,2.7693,2.7738,2.7753,2.7762,2.7786,2.7798,2.7782,2.7779,2.7795,2.78,2.7823,2.7823,2.7824,2.7824,0,2.7132,2.7193,2.7214,2.7288,2.7307,2.731,2.7373,2.7385,2.7429,2.7452,2.7461,2.753,2.7562,2.7622,2.7669,2.77,2.7705,2.7725,2.7689,2.7697,2.7677,2.7678,2.7599,2.7593,2.769,2.7689,2.7688,0,2.7088,2.7094,2.7169,2.7187,2.7218,2.7245,2.7268,2.7335,2.7357,2.7415,2.7419,2.7456,2.749,2.7537,2.7591,2.7629,2.7651,2.7621,2.7657,2.7641,2.7652,2.7652,2.7654,2.7613,2.7611,2.761,2.7609,0,2.7004,2.7034,2.7066,2.7109,2.7136,2.7172,2.7212,2.7222,2.7298,2.7319,2.7354,2.738,2.743,2.7466,2.7511,2.7545,2.759,2.7597,2.7596,2.7579,2.7559,2.7572,2.7669,2.7599,2.76,2.7601,2.7601,2.7602,2.6934,2.6944,2.6999,2.7033,2.707,2.7106,2.7121,2.7169,2.7199,2.7246,2.7283,2.7315,2.7365,2.7431,2.7462,2.7488,2.7509,2.7505,2.7505,2.7504,2.7498,2.7554,2.7496,2.7496,2.7496,2.7497,2.7497,0,2.6855,2.6894,2.6925,2.6979,2.7006,2.7047,2.7094,2.7113,2.7141,2.7185,2.7217,2.7257,2.7292,2.735,2.739,2.74,2.7421,2.7408,2.7409,2.7416,2.7476,2.7474,2.739,2.739,2.739,2.739,2.739,2.739,2.6817,2.6836,2.6873,2.6911,2.695,2.6983,2.7006,2.704,2.7075,2.7118,2.7148,2.7186,2.7236,2.7281,2.7315,2.7331,2.7344,2.7324,2.7347,2.7401,2.7411,2.7421,2.742,2.7326,2.7326,2.7285,2.7285,2.7285]}]]